Back to catalog

FENGYUN 1D

AliveWeatherSSO
NORAD 27431·PAYLOAD·🇨🇳 China

Launched May 15, 2002 from Taiyuan Satellite Launch Center

Loading…

Next Passes (next 24 hours)

TLE

FreshSource: Space-Track

Epoch: Sep 14, 2026, 09:40 UTC

1 27431U 02024B   26257.40307039 -.00000019  00000-0  14694-4 0  9992
2 27431  98.9431 307.2880 0015207 355.7592   4.3447 14.10234140252058

Track FENGYUN 1D in real time with AllMySat

Download on the App Store